Location: Vancouver
(49.2500°N, 123.1330°W)
Time: 09:29:15
(UTC-07:00)

Cosmos 2333 Rocket - Visible Passes

Search period start: 02 October 2014 00:00
Search period end: 12 October 2014 00:00
Orbit: 838 x 863 km, 70.9° (Epoch: 01 October)

Date Brightness Start Highest point End Pass type
(mag) Time Alt. Az. Time Alt. Az. Time Alt. Az.
02 Oct 4.6 01:49:48 18° NNE 01:49:48 18° NNE 01:51:14 10° NNE visible
02 Oct 4.4 03:31:48 15° NNW 03:31:48 15° NNW 03:34:36 10° N visible
03 Oct 4.7 01:37:48 16° NNE 01:37:48 16° NNE 01:38:57 10° NNE visible
03 Oct 4.5 03:19:48 15° NNW 03:19:48 15° NNW 03:22:19 10° N visible
04 Oct 4.8 01:25:48 15° NNE 01:25:48 15° NNE 01:26:40 10° NNE visible
04 Oct 4.6 03:07:48 15° NNW 03:07:48 15° NNW 03:10:02 10° N visible
04 Oct 4.7 06:39:02 10° N 06:41:10 12° NNE 06:43:18 10° NE visible
05 Oct 4.9 01:13:47 13° NNE 01:13:47 13° NNE 01:14:23 10° NNE visible
05 Oct 4.6 02:55:47 14° NNW 02:55:47 14° NNW 02:57:45 10° N visible
05 Oct 4.7 06:26:45 10° N 06:28:53 12° NNE 06:31:01 10° NE visible
06 Oct 5.0 01:01:46 12° NNE 01:01:46 12° NNE 01:02:06 10° NNE visible
06 Oct 4.7 02:43:46 14° NNW 02:43:46 14° NNW 02:45:28 10° N visible
06 Oct 4.8 06:14:28 10° N 06:16:36 12° NNE 06:18:43 10° NE visible
07 Oct 5.1 00:49:45 10° NNE 00:49:45 10° NNE 00:49:49 10° NNE visible
07 Oct 4.8 02:31:45 13° N 02:31:45 13° N 02:33:10 10° N visible
07 Oct 4.8 06:02:11 10° N 06:04:19 12° NNE 06:06:26 10° NE visible
08 Oct 4.9 02:19:44 13° N 02:19:44 13° N 02:20:53 10° N visible
08 Oct 4.8 05:49:55 10° N 05:52:02 12° NNE 05:54:09 10° NE visible
09 Oct 5.0 02:07:43 12° N 02:07:43 12° N 02:08:36 10° N visible
09 Oct 4.8 05:37:38 10° N 05:39:45 12° NNE 05:41:51 10° NE visible
10 Oct 5.0 01:55:43 12° N 01:55:43 12° N 01:56:19 10° N visible
10 Oct 4.8 05:25:21 10° N 05:27:28 12° NNE 05:29:34 10° NE visible
11 Oct 5.1 01:43:42 11° N 01:43:42 11° N 01:44:02 10° N visible
11 Oct 4.9 05:13:04 10° N 05:15:11 12° NNE 05:17:16 10° NE visible
11 Oct 3.7 06:56:00 10° NNW 07:01:16 36° NE 07:06:29 10° ESE visible
